Location: Balaclava NSW 2575, Australia
(34.4510°S, 150.4953°E)
Time: 21:11:03
(UTC+10:00)

Hubble Space Telescope - Pass Details

Date: 22 May 2021
Orbit: 535 x 539 km, 28.5° (Epoch: 19 June)

Event Time Altitude Azimuth Distance (km) Brightness Sun altitude
Rises 18:50:06 0° 279° (W) 2,690 5.9 -22.5°
Reaches altitude 10° 18:52:32 10° 289° (WNW) 1,798 4.5 -23.0°
Maximum altitude 18:56:14 31° 351° (N) 961 2.1 -23.7°
Enters shadow 18:56:37 30° 3° (N) 974 2.1 -23.8°
